Glencoe, MN

5:50 PM CST on December 09, 2019 (GMT -0600)
Glencoe Municipal

Weather History for KGYL - October, 2019

Change the Weather History Date:

Saturday, October 19, 2019

  Actual Average (WUND) Record (WUND)
Temperature  
Mean Temperature 54 °F -  
Max Temperature 68 °F - - (-1)
Min Temperature 40 °F - - (-1)
Degree Days  
Heating Degree Days 11    
Growing Degree Days 4 (Base 50)    
Moisture  
Dew Point 40 °F    
Average Humidity 67    
Maximum Humidity 89    
Minimum Humidity 26    
Precipitation  
Precipitation 0.00 in - - ()
Sea Level Pressure  
Sea Level Pressure 29.66 in    
Wind  
Wind Speed 5 mph (WSW)    
Max Wind Speed 12 mph    
Max Gust Speed 21 mph    
Visibility 10 miles    
Events      
Averages and records for this station are not official NWS values.
T = Trace of Precipitation, MM = Missing Value Source: NWS Daily Summary

Daily Weather History Graph

Daily Weather History Graph

Search for Another Location

Airport or City:

Astronomy

Oct. 19, 2019 Rise Set
Actual Time 7:36 AM CDT 6:25 PM CDT
Civil Twilight 7:07 AM CDT 6:54 PM CDT
Nautical Twilight 6:33 AM CDT 7:28 PM CDT
Astronomical Twilight 5:59 AM CDT 8:02 PM CDT
Moon 10:24 PM CDT (10/19) 1:20 PM CDT (10/19)
Length of Visible Light 11h 47m
Length of Day
10h 48m
Waning Gibbous, 69% of the Moon is Illuminated
Oct 19
Waning Gibbous
Oct 21
Last Quarter
Oct 27
New
Nov 4
First Quarter
Nov 12
Full

Hourly Weather History & Observations

Time (CDT) Temp. Windchill Dew Point Humidity Pressure Visibility Wind Dir Wind Speed Gust Speed Precip Events Conditions
12:16 AM 58.1 °F - 44.6 °F 61% 29.56 in 10.0 mi South 6.9 mph - N/A   Clear
12:35 AM 57.6 °F - 44.8 °F 62% 29.55 in 10.0 mi South 8.1 mph - N/A   Clear
12:36 AM 57.6 °F - 45.0 °F 63% 29.55 in 10.0 mi South 8.1 mph - N/A   Clear
12:59 AM 55.8 °F - 45.5 °F 68% 29.56 in 10.0 mi South 4.6 mph - N/A   Clear
1:16 AM 54.9 °F - 45.1 °F 70% 29.56 in 10.0 mi SSW 5.8 mph - N/A   Clear
1:35 AM 53.8 °F - 45.0 °F 72% 29.58 in 10.0 mi SSW 4.6 mph - N/A   Clear
1:36 AM 53.6 °F - 45.0 °F 73% 29.58 in 10.0 mi SSW 4.6 mph - N/A   Clear
1:58 AM 52.9 °F - 45.1 °F 75% 29.59 in 10.0 mi SW 4.6 mph - N/A   Clear
2:15 AM 52.0 °F - 45.5 °F 79% 29.59 in 10.0 mi SW 6.9 mph - N/A   Clear
2:35 AM 51.4 °F - 45.5 °F 80% 29.60 in 10.0 mi WSW 4.6 mph - N/A   Clear
2:36 AM 51.4 °F - 45.5 °F 80% 29.60 in 10.0 mi West 3.5 mph - N/A   Clear
2:58 AM 50.9 °F - 45.7 °F 82% 29.61 in 10.0 mi WSW 3.5 mph - N/A   Clear
3:16 AM 49.8 °F - 45.3 °F 84% 29.61 in 10.0 mi SW 3.5 mph - N/A   Clear
3:35 AM 49.5 °F - 45.5 °F 86% 29.61 in 10.0 mi Calm Calm - N/A   Clear
3:36 AM 49.5 °F - 45.5 °F 86% 29.61 in 10.0 mi Calm Calm - N/A   Clear
3:58 AM 48.4 °F - 45.1 °F 89% 29.61 in 10.0 mi Calm Calm - N/A   Clear
4:15 AM 48.7 °F - 45.1 °F 87% 29.62 in 10.0 mi WSW 3.5 mph - N/A   Clear
4:35 AM 48.6 °F - 44.8 °F 87% 29.62 in 10.0 mi WSW 3.5 mph - N/A   Clear
4:36 AM 48.6 °F - 44.8 °F 87% 29.62 in 10.0 mi WSW 3.5 mph - N/A   Clear
4:57 AM 48.4 °F - 44.6 °F 87% 29.63 in 10.0 mi WSW 3.5 mph - N/A   Clear
5:15 AM 48.6 °F - 44.6 °F 86% 29.64 in 10.0 mi West 5.8 mph - N/A   Mostly Cloudy
5:16 AM 48.6 °F - 44.6 °F 86% 29.64 in 10.0 mi West 5.8 mph - N/A   Mostly Cloudy
5:39 AM 50.0 °F - 44.4 °F 81% 29.65 in 10.0 mi West 3.5 mph - N/A   Overcast
5:56 AM 50.2 °F - 44.1 °F 79% 29.64 in 10.0 mi Calm Calm - N/A   Overcast
6:15 AM 50.0 °F - 43.9 °F 79% 29.65 in 10.0 mi WSW 3.5 mph - N/A   Mostly Cloudy
6:35 AM 50.0 °F - 43.9 °F 79% 29.65 in 10.0 mi Calm Calm - N/A   Mostly Cloudy
6:36 AM 50.0 °F - 43.9 °F 79% 29.65 in 10.0 mi Calm Calm - N/A   Mostly Cloudy
6:58 AM 49.5 °F - 44.1 °F 82% 29.65 in 10.0 mi Calm Calm - N/A   Drizzle
7:16 AM 49.1 °F - 44.6 °F 84% 29.65 in 10.0 mi Calm Calm - N/A   Light Drizzle
7:35 AM 48.6 °F - 45.0 °F 87% 29.66 in 10.0 mi WSW 4.6 mph - N/A   Overcast
7:36 AM 48.6 °F - 45.0 °F 87% 29.66 in 10.0 mi SW 5.8 mph - N/A   Overcast
7:58 AM 49.1 °F - 44.6 °F 84% 29.67 in 10.0 mi SW 3.5 mph - N/A   Overcast
8:16 AM 49.3 °F - 44.2 °F 83% 29.68 in 10.0 mi WSW 3.5 mph - N/A   Overcast
8:35 AM 50.0 °F - 43.7 °F 79% 29.68 in 10.0 mi SW 5.8 mph - N/A   Mostly Cloudy
8:36 AM 50.2 °F - 43.7 °F 78% 29.68 in 10.0 mi SW 5.8 mph - N/A   Mostly Cloudy
8:59 AM 50.0 °F - 42.8 °F 76% 29.69 in 10.0 mi SW 3.5 mph - N/A   Mostly Cloudy
9:59 AM 50.0 °F - 44.6 °F 82% 29.69 in 10.0 mi WSW 4.6 mph - N/A   Clear
10:59 AM 57.2 °F - 42.8 °F 59% 29.70 in 10.0 mi West 5.8 mph - N/A   Clear
12:03 PM - - - N/A% 29.69 in 10.0 mi SW 4.6 mph - N/A   Clear
12:16 PM 62.6 °F - 40.5 °F 44% 29.69 in 10.0 mi Calm Calm - N/A   Clear
12:36 PM - - - N/A% 29.69 in 10.0 mi WSW 6.9 mph - N/A   Clear
12:59 PM 64.8 °F - 37.8 °F 37% 29.68 in 10.0 mi West 8.1 mph - N/A   Clear
1:16 PM 65.1 °F - 37.8 °F 36% 29.68 in 10.0 mi West 6.9 mph - N/A   Clear
1:37 PM 65.8 °F - 37.0 °F 35% 29.67 in 10.0 mi West 8.1 mph - N/A   Clear
1:55 PM 66.2 °F - 36.0 °F 33% 29.66 in 10.0 mi West 5.8 mph - N/A   Clear
2:48 PM - - - N/A% 29.66 in 10.0 mi West 11.5 mph 17.3 mph N/A   Clear
2:59 PM 68.0 °F - 33.8 °F 28% 29.66 in 10.0 mi West 10.4 mph 20.7 mph N/A   Clear
3:25 PM - - - N/A% 29.66 in 10.0 mi West 8.1 mph - N/A   Clear
3:40 PM 66.9 °F - 34.2 °F 30% 29.66 in 10.0 mi West 6.9 mph - N/A   Clear
3:58 PM 67.1 °F - 33.8 °F 29% 29.65 in 10.0 mi WSW 6.9 mph 10.4 mph N/A   Clear
4:46 PM - - - N/A% 29.66 in 10.0 mi WSW 6.9 mph - N/A   Clear
5:04 PM 66.2 °F - 30.0 °F 26% 29.66 in 10.0 mi West 10.4 mph - N/A   Clear
5:18 PM 65.3 °F - 31.5 °F 28% 29.66 in 10.0 mi West 6.9 mph - N/A   Clear
5:59 PM 62.6 °F - 32.0 °F 32% 29.68 in 10.0 mi West 3.5 mph - N/A   Clear
6:20 PM - - - N/A% 29.68 in 7.0 mi West 3.5 mph - N/A   Clear
6:35 PM 59.2 °F - 32.9 °F 37% 29.68 in 10.0 mi West 3.5 mph - N/A   Clear
6:36 PM 59.2 °F - 32.9 °F 37% 29.68 in 10.0 mi West 3.5 mph - N/A   Clear
6:55 PM 57.4 °F - 33.3 °F 40% 29.69 in 10.0 mi West 4.6 mph - N/A   Clear
7:17 PM 54.3 °F - 34.5 °F 47% 29.70 in 10.0 mi SW 3.5 mph - N/A   Clear
7:35 PM 52.9 °F - 34.7 °F 50% 29.70 in 10.0 mi WSW 3.5 mph - N/A   Clear
7:36 PM 52.5 °F - 35.1 °F 51% 29.70 in 10.0 mi West 3.5 mph - N/A   Clear
7:55 PM 53.4 °F - 34.2 °F 48% 29.72 in 10.0 mi West 5.8 mph - N/A   Clear
8:19 PM 52.3 °F - 34.2 °F 50% 29.72 in 10.0 mi West 3.5 mph - N/A   Clear
8:35 PM 48.0 °F - 35.2 °F 61% 29.72 in 10.0 mi Calm Calm - N/A   Clear
8:55 PM 46.4 °F 45.2 °F 35.8 °F 67% 29.73 in 10.0 mi WSW 3.5 mph - N/A   Clear
8:56 PM 46.4 °F 45.2 °F 35.8 °F 67% 29.73 in 10.0 mi West 3.5 mph - N/A   Clear
9:18 PM 44.1 °F - 36.1 °F 74% 29.73 in 10.0 mi Calm Calm - N/A   Clear
9:36 PM 44.6 °F - 35.8 °F 71% 29.74 in 10.0 mi Calm Calm - N/A   Clear
9:55 PM 44.6 °F - 35.6 °F 71% 29.74 in 10.0 mi Calm Calm - N/A   Clear
9:56 PM 44.4 °F - 35.6 °F 71% 29.74 in 10.0 mi Calm Calm - N/A   Clear
10:15 PM 43.3 °F - 35.6 °F 74% 29.74 in 10.0 mi Calm Calm - N/A   Clear
10:16 PM 43.2 °F - 35.6 °F 75% 29.74 in 10.0 mi Calm Calm - N/A   Clear
10:37 PM 42.6 °F - 35.4 °F 76% 29.74 in 10.0 mi Calm Calm - N/A   Clear
10:56 PM 41.5 °F - 36.0 °F 81% 29.74 in 10.0 mi Calm Calm - N/A   Clear
11:15 PM 40.1 °F - 36.0 °F 85% 29.74 in 10.0 mi Calm Calm - N/A   Clear
11:16 PM 40.1 °F - 36.0 °F 85% 29.74 in 10.0 mi Calm Calm - N/A   Clear
11:39 PM 41.0 °F - 35.6 °F 81% 29.75 in 10.0 mi Calm Calm - N/A   Clear
11:57 PM 40.1 °F 38.0 °F 35.4 °F 83% 29.75 in 10.0 mi SW 3.5 mph - N/A   Clear